Date String (YYYY-MM-DD hh:mm:ss) UTC,Instrument flags,absolute air pressure of the measurement (hPa),sample flow rate (lpm),inlet stack bypass flow (lpm),air temperature of the measurement (°C),ambient temperature measured by the external sensor (°C),aerosol sample conditioner tube jacket temperature (°C),OPC LED temperature (°C),internal box temperature (°C),relative humidity of the measurement (%),span deviation,mass concentration of particles derived from Lorenz-Mie calculation of OPC scattering (μg/m³),mass concentration of particles derived from Lorenz-Mie calculation of OPC scattering (μg/m³),mass concentration of particles derived from Lorenz-Mie calculation of OPC scattering (μg/m³)
DateTimeUTC,F1_M11,P_M11,Q1_M11,Q2_M11,T1_M11,T2_M11,T3_M11,T4_M11,T5_M11,U1_M11,ZSPAN_M11,X2_M11,X0_M11,X1_M11
2023-12-16 10:00:00,SystemResetWarning,0833.5,5.00,000.00,019.9,018.9,000.0,028.1,021.1,10.3,0000.0,0001.10,0001.52,0000.91
2023-12-16 10:01:00,SystemResetWarning,0833.4,5.01,000.00,019.9,018.9,000.0,028.1,021.1,10.2,0000.0,0001.07,0001.50,0000.90
2023-12-16 10:02:00,SystemResetWarning,0833.5,5.00,000.00,019.9,018.9,000.0,028.1,021.1,10.1,0000.0,0001.08,0001.55,0000.89
2023-12-16 10:03:00,SystemResetWarning,0833.5,5.00,000.00,019.9,018.9,000.0,028.1,021.1,10.1,0000.0,0001.08,0001.55,0000.90
2023-12-16 10:04:00,SystemResetWarning,0833.6,5.00,000.00,019.9,018.9,000.0,028.1,021.2,10.2,0000.0,0001.08,0001.53,0000.90
2023-12-16 10:05:00,SystemResetWarning,0833.6,5.00,000.00,019.8,019.0,000.0,028.1,021.2,10.3,0000.0,0001.07,0001.53,0000.89
2023-12-16 10:06:00,SystemResetWarning,0833.7,5.00,000.00,019.8,019.0,000.0,028.1,021.1,10.5,0000.0,0001.03,0001.42,0000.88
2023-12-16 10:07:00,SystemResetWarning,0833.6,5.00,000.00,019.8,019.0,000.0,028.1,021.1,10.5,0000.0,0001.02,0001.40,0000.87
2023-12-16 10:08:00,SystemResetWarning,0833.6,5.00,000.00,019.8,018.9,000.0,028.1,021.1,10.5,0000.0,0001.06,0001.47,0000.87
2023-12-16 10:09:00,SystemResetWarning,0833.6,5.00,000.00,019.9,018.9,000.0,028.1,021.1,10.5,0000.0,0001.07,0001.51,0000.87
2023-12-16 10:10:00,SystemResetWarning,0833.7,5.00,000.00,019.9,018.9,000.0,028.1,021.1,10.6,0000.0,0001.05,0001.47,0000.85
2023-12-16 10:11:00,SystemResetWarning,0833.7,5.00,000.00,019.9,018.9,000.0,028.1,021.1,10.7,0000.0,0001.06,0001.52,0000.85
2023-12-16 10:12:00,SystemResetWarning,0833.7,5.00,000.00,019.9,018.9,000.0,028.1,021.1,10.8,0000.0,0001.07,0001.55,0000.85
2023-12-16 10:13:00,SystemResetWarning,0833.7,5.00,000.00,019.9,018.9,000.0,028.1,021.1,10.8,0000.0,0001.07,0001.54,0000.85
2023-12-16 10:14:00,SystemResetWarning,0833.7,5.00,000.00,019.9,018.9,000.0,028.1,021.1,10.7,0000.0,0001.06,0001.52,0000.84
2023-12-16 10:15:00,SystemResetWarning,0833.7,5.00,000.00,019.9,018.9,000.0,028.1,021.1,10.8,0000.0,0001.07,0001.52,0000.84
2023-12-16 10:16:00,SystemResetWarning,0833.7,5.01,000.00,019.8,018.9,000.0,028.1,021.1,10.9,0000.0,0001.06,0001.46,0000.85
2023-12-16 10:17:00,SystemResetWarning,0833.7,5.00,000.00,019.8,018.9,000.0,028.1,021.1,10.9,0000.0,0001.07,0001.54,0000.85
2023-12-16 10:18:00,SystemResetWarning,0833.7,5.00,000.00,019.8,018.9,000.0,028.1,021.1,10.9,0000.0,0001.07,0001.62,0000.84
2023-12-16 10:19:00,SystemResetWarning,0833.7,5.01,000.00,019.8,018.9,000.0,028.1,021.0,11.1,0000.0,0001.02,0001.68,0000.84
2023-12-16 10:20:00,SystemResetWarning,0833.7,5.00,000.00,019.8,018.9,000.0,028.1,021.0,10.9,0000.0,0001.00,0001.65,0000.83
2023-12-16 10:21:00,SystemResetWarning,0833.7,5.00,000.00,019.8,018.8,000.0,028.1,021.0,10.8,0000.0,0001.00,0001.67,0000.82
2023-12-16 10:22:00,SystemResetWarning,0833.6,5.01,000.00,019.8,018.8,000.0,028.1,021.0,10.7,0000.0,0001.01,0001.67,0000.82
2023-12-16 10:23:00,SystemResetWarning,0833.6,5.00,000.00,019.8,018.8,000.0,028.1,021.0,10.6,0000.0,0001.03,0001.69,0000.82
2023-12-16 10:24:00,SystemResetWarning,0833.6,5.00,000.00,019.8,018.8,000.0,028.1,021.0,10.5,0000.0,0001.01,0001.69,0000.81
2023-12-16 10:25:00,SystemResetWarning,0833.6,4.99,000.00,019.8,018.8,000.0,028.1,021.0,10.5,0000.0,0001.00,0001.72,0000.81
2023-12-16 10:26:00,SystemResetWarning,0833.4,5.00,000.00,019.8,018.8,000.0,028.1,021.0,10.6,0000.0,0001.00,0001.97,0000.81
2023-12-16 10:27:00,SystemResetWarning,0833.4,5.00,000.00,019.7,018.8,000.0,028.1,021.0,10.5,0000.0,0000.99,0003.08,0000.81
2023-12-16 10:28:00,SystemResetWarning,0833.5,5.00,000.00,019.7,018.8,000.0,028.1,021.0,10.3,0000.0,0000.98,0003.20,0000.81
2023-12-16 10:29:00,SystemResetWarning,0833.6,5.00,000.00,019.7,018.8,000.0,028.1,021.0,10.3,0000.0,0000.99,0003.14,0000.82
2023-12-16 10:30:00,SystemResetWarning,0833.7,5.00,000.00,019.7,018.8,000.0,028.1,021.0,10.4,0000.0,0001.02,0003.03,0000.82
2023-12-16 10:31:00,SystemResetWarning,0833.7,5.00,000.00,019.7,018.8,000.0,028.1,021.0,10.4,0000.0,0001.02,0003.00,0000.83
2023-12-16 10:32:00,SystemResetWarning,0833.6,5.00,000.00,019.7,018.8,000.0,028.1,021.0,10.5,0000.0,0001.04,0003.00,0000.84
2023-12-16 10:33:00,SystemResetWarning,0833.6,4.99,000.00,019.7,018.7,000.0,028.0,021.0,10.5,0000.0,0001.00,0002.95,0000.83
2023-12-16 10:34:00,SystemResetWarning,0833.6,5.00,000.00,019.7,018.7,000.0,028.0,020.9,10.5,0000.0,0000.97,0002.90,0000.82
2023-12-16 10:35:00,SystemResetWarning,0833.5,5.00,000.00,019.7,018.7,000.0,028.0,020.9,10.4,0000.0,0000.99,0002.94,0000.82
2023-12-16 10:36:00,SystemResetWarning,0833.5,5.01,000.00,019.7,018.7,000.0,028.0,020.9,10.3,0000.0,0001.00,0002.91,0000.82
2023-12-16 10:37:00,SystemResetWarning,0833.5,5.01,000.00,019.6,018.7,000.0,028.0,020.9,10.3,0000.0,0001.00,0002.64,0000.83
2023-12-16 10:38:00,SystemResetWarning,0833.5,5.00,000.00,019.6,018.6,000.0,028.0,020.9,10.3,0000.0,0001.03,0001.60,0000.82
2023-12-16 10:39:00,SystemResetWarning,0833.5,4.99,000.00,019.6,018.6,000.0,028.0,020.8,10.4,0000.0,0001.03,0001.46,0000.82
2023-12-16 10:40:00,SystemResetWarning,0833.6,4.99,000.00,019.6,018.6,000.0,028.0,020.8,10.5,0000.0,0001.00,0001.39,0000.80
2023-12-16 10:41:00,SystemResetWarning,0833.6,5.00,000.00,019.6,018.6,000.0,028.0,020.8,10.4,0000.0,0000.99,0001.38,0000.80
2023-12-16 10:42:00,SystemResetWarning,0833.7,5.00,000.00,019.6,018.6,000.0,028.0,020.8,10.3,0000.0,0000.99,0001.41,0000.79
2023-12-16 10:43:00,SystemResetWarning,0833.7,5.01,000.00,019.6,018.6,000.0,028.0,020.8,10.2,0000.0,0000.98,0002.19,0000.79
2023-12-16 10:44:00,SystemResetWarning,0833.6,5.01,000.00,019.6,018.6,000.0,028.0,020.8,10.2,0000.0,0000.98,0002.26,0000.80
2023-12-16 10:45:00,SystemResetWarning,0833.6,5.00,000.00,019.6,018.6,000.0,028.0,020.8,10.3,0000.0,0000.98,0002.32,0000.80
2023-12-16 10:46:00,SystemResetWarning,0833.5,5.00,000.00,019.6,018.6,000.0,028.0,020.8,10.4,0000.0,0000.96,0002.30,0000.80
2023-12-16 10:47:00,SystemResetWarning,0833.4,5.00,000.00,019.6,018.6,000.0,027.9,020.9,10.3,0000.0,0000.97,0002.30,0000.80
2023-12-16 10:48:00,SystemResetWarning,0833.4,4.99,000.00,019.6,018.6,000.0,027.9,020.8,10.3,0000.0,0000.99,0002.37,0000.80
2023-12-16 10:49:00,SystemResetWarning,0833.4,4.99,000.00,019.6,018.6,000.0,027.9,020.8,10.3,0000.0,0000.96,0002.31,0000.81
2023-12-16 10:50:00,SystemResetWarning,0833.4,4.99,000.00,019.6,018.6,000.0,027.9,020.8,10.3,0000.0,0000.95,0002.28,0000.80
2023-12-16 10:51:00,SystemResetWarning,0833.4,5.00,000.00,019.6,018.6,000.0,027.9,020.8,10.4,0000.0,0000.96,0002.29,0000.81
2023-12-16 10:52:00,SystemResetWarning,0833.4,5.01,000.00,019.5,018.6,000.0,027.9,020.8,10.3,0000.0,0000.95,0002.27,0000.80
2023-12-16 10:53:00,SystemResetWarning,0833.3,5.00,000.00,019.6,018.6,000.0,027.9,020.8,10.2,0000.0,0000.92,0002.20,0000.80
2023-12-16 10:54:00,SystemResetWarning,0833.3,5.00,000.00,019.6,018.6,000.0,027.9,020.8,10.4,0000.0,0000.90,0001.48,0000.79
2023-12-16 10:55:00,SystemResetWarning,0833.3,4.98,000.00,019.5,018.6,000.0,027.9,020.8,10.4,0000.0,0000.91,0001.32,0000.78
2023-12-16 10:56:00,SystemResetWarning,0833.3,5.00,000.00,019.6,018.6,000.0,027.9,020.8,10.1,0000.0,0000.91,0001.29,0000.78
2023-12-16 10:57:00,SystemResetWarning,0833.3,5.00,000.00,019.6,018.6,000.0,027.9,020.9,10.0,0000.0,0000.92,0001.30,0000.77
2023-12-16 10:58:00,SystemResetWarning,0833.4,5.00,000.00,019.6,018.6,000.0,027.9,020.8,10.1,0000.0,0000.96,0001.39,0000.78
2023-12-16 10:59:00,SystemResetWarning,0833.4,5.00,000.00,019.6,018.6,000.0,027.9,020.8,10.1,0000.0,0000.95,0001.93,0000.78
